DW2144 Weather Reports


Display with metric or nautical units.
time (UTC)temp
F
wind
direction
speed
MPH
gust
MPH
rain 1hr
in
rain 24hr
in
rain mn
in
humidity
%
barometer
mb
20200403100056 45 89 0.0 0.0 0.00 0.00 0.00 74 1017.8
20200403094544 46 89 0.0 3.0 0.00 0.00 0.00 73 1017.7
20200403093021 46 87 0.0 2.0 0.00 0.00 0.00 73 1017.7
20200403091608 46 88 0.0 4.0 0.00 0.00 0.00 73 1017.7
20200403090026 46 103 0.0 6.0 0.00 0.00 0.00 73 1017.8
20200403084529 46 85 0.0 7.0 0.00 0.00 0.00 72 1018.0
20200403083029 46 82 0.0 4.0 0.00 0.00 0.00 73 1018.2
20200403081540 46 99 0.0 4.0 0.00 0.00 0.00 72 1018.4
20200403080040 46 94 0.0 2.0 0.00 0.00 0.00 71 1018.3
20200403074505 46 94 0.0 2.0 0.00 0.00 0.00 70 1018.2
20200403073010 46 65 0.0 3.0 0.00 0.00 0.00 72 1018.0
20200403071650 46 62 0.0 2.0 0.00 0.00 0.00 72 1018.1
20200403070407 46 62 0.0 1.0 0.00 0.00 0.00 73 1018.1
20200403064630 46 62 0.0 1.0 0.00 0.00 0.00 73 1018.2
20200403063123 47 62 0.0 0.0 0.00 0.00 0.00 73 1017.8
20200403062003 48 62 0.0 3.0 0.00 0.00 0.00 68 1018.0
20200403060125 48 332 0.0 4.0 0.00 0.00 0.00 68 1017.8
20200403054651 48 110 0.0 4.0 0.00 0.00 0.00 68 1017.8
20200403053154 49 136 0.0 3.0 0.00 0.00 0.00 67 1017.8
20200403051640 50 136 0.0 3.0 0.00 0.00 0.00 65 1017.8
20200403050107 49 136 0.0 3.0 0.00 0.00 0.00 66 1017.8
20200403044717 49 78 0.0 2.0 0.00 0.00 0.00 64 1017.7
20200403043242 50 78 0.0 1.0 0.00 0.00 0.00 62 1017.6
20200403041609 51 79 0.0 3.0 0.00 0.00 0.00 61 1017.6
20200403040219 51 79 0.0 4.0 0.00 0.00 0.00 56 1017.3
20200403034602 52 79 0.0 1.0 0.00 0.00 0.00 57 1017.1
20200403033119 53 79 0.0 1.0 0.00 0.00 0.00 51 1017.0
20200403031601 54 79 0.0 2.0 0.00 0.00 0.00 50 1016.8
20200403030058 55 80 0.0 3.0 0.00 0.00 0.00 44 1016.7
20200403024603 57 134 0.0 3.0 0.00 0.00 0.00 43 1016.7
20200403023156 58 118 0.0 4.0 0.00 0.00 0.00 36 1016.6
20200403021635 59 113 0.0 2.0 0.00 0.00 0.00 39 1016.5
20200403020140 59 113 1.0 3.0 0.00 0.00 0.00 43 1016.5
20200403014552 61 44 0.0 1.0 0.00 0.00 0.00 42 1016.4
20200403013102 62 28 0.0 5.0 0.00 0.00 0.00 36 1016.3
20200403011614 63 184 0.0 4.0 0.00 0.00 0.00 31 1016.2
20200403010117 64 165 0.0 5.0 0.00 0.00 0.00 31 1016.2
20200403004554 64 332 0.0 5.0 0.00 0.00 0.00 32 1016.1
20200403003202 64 124 0.0 3.0 0.00 0.00 0.00 26 1016.1
20200403001653 65 321 0.0 2.0 0.00 0.00 0.00 27 1016.1
20200403000158 65 210 0.0 1.0 0.00 0.00 0.00 28 1016.0
20200402234632 65 211 0.0 3.0 0.00 0.00 0.00 26 1016.1
20200402233140 66 301 0.0 1.0 0.00 0.00 0.00 30 1016.1
20200402231651 66 304 0.0 3.0 0.00 0.00 0.00 21 1016.1
20200402230046 66 317 0.0 4.0 0.00 0.00 0.00 24 1016.2
20200402224553 67 173 1.0 4.0 0.00 0.00 0.00 22 1016.3
20200402223113 67 163 0.0 4.0 0.00 0.00 0.00 21 1016.4
20200402221553 66 126 0.0 3.0 0.00 0.00 0.00 22 1016.5
20200402220057 66 153 0.0 1.0 0.00 0.00 0.00 26 1016.5
20200402214551 66 138 0.0 4.0 0.00 0.00 0.00 25 1016.7
20200402213035 66 146 0.0 3.0 0.00 0.00 0.00 19 1016.9
20200402211538 66 71 0.0 4.0 0.00 0.00 0.00 19 1017.1
20200402210107 66 288 0.0 3.0 0.00 0.00 0.00 21 1017.2
20200402204604 65 136 0.0 3.0 0.00 0.00 0.00 22 1017.3
20200402203055 65 342 0.0 2.0 0.00 0.00 0.00 27 1017.6
20200402201540 64 119 0.0 1.0 0.00 0.00 0.00 35 1017.7
20200402200114 62 74 0.0 5.0 0.00 0.00 0.00 35 1017.8
20200402194516 60 89 1.0 3.0 0.00 0.00 0.00 34 1018.0
20200402193014 60 91 0.0 4.0 0.00 0.00 0.00 35 1018.3
20200402191555 60 96 0.0 3.0 0.00 0.00 0.00 42 1018.5
20200402190021 59 97 0.0 2.0 0.00 0.00 0.00 42 1018.8
20200402184541 58 97 0.0 0.0 0.00 0.00 0.00 51 1018.9
20200402183004 55 97 0.0 2.0 0.00 0.00 0.00 57 1018.9
20200402181645 54 97 0.0 1.0 0.00 0.00 0.00 54 1019.1
20200402180121 53 98 0.0 2.0 0.00 0.00 0.00 58 1019.2
20200402174612 52 98 0.0 3.0 0.00 0.00 0.00 61 1019.2
20200402173232 51 100 0.0 4.0 0.00 0.00 0.00 60 1019.4
20200402171623 50 99 0.0 1.0 0.00 0.00 0.00 62 1019.3
20200402170118 48 99 0.0 3.0 0.00 0.00 0.00 71 1019.4
20200402164620 46 99 0.0 1.0 0.00 0.00 0.00 74 1019.2
20200402163056 45 99 0.0 2.0 0.00 0.00 0.00 79 1019.4
20200402161600 43 99 0.0 2.0 0.00 0.00 0.00 81 1019.2
20200402160158 41 99 0.0 1.0 0.00 0.00 0.00 83 1019.3
20200402154550 40 99 0.0 2.0 0.00 0.00 0.00 83 1019.4
20200402153100 39 99 0.0 2.0 0.00 0.00 0.00 84 1019.3
20200402151622 38 99 0.0 1.0 0.00 0.00 0.00 84 1019.2
20200402150125 37 99 0.0 0.0 0.00 0.00 0.00 84 1019.2
20200402144555 37 99 0.0 0.0 0.00 0.00 0.00 84 1019.2
20200402143035 37 99 0.0 0.0 0.00 0.00 0.00 84 1018.7
20200402141717 37 99 0.0 0.0 0.00 0.00 0.00 84 1018.7
20200402140038 37 99 0.0 0.0 0.00 0.00 0.00 83 1018.6
20200402134611 38 99 0.0 0.0 0.00 0.00 0.00 83 1018.5
20200402133029 38 99 0.0 0.0 0.00 0.00 0.00 81 1018.4
20200402131540 39 99 0.0 0.0 0.00 0.00 0.00 80 1018.0
20200402130039 40 99 0.0 1.0 0.00 0.00 0.00 80 1018.0
20200402124525 40 99 0.0 1.0 0.00 0.00 0.00 78 1017.8
20200402123022 42 99 0.0 1.0 0.00 0.00 0.00 76 1017.7
20200402121522 43 100 0.0 2.0 0.00 0.00 0.00 73 1017.7
20200402120008 44 100 0.0 3.0 0.00 0.00 0.00 71 1017.5
20200402114508 44 95 0.0 6.0 0.00 0.00 0.00 71 1017.5
20200402113002 44 71 0.0 7.0 0.00 0.00 0.00 71 1017.4
20200402111506 44 98 1.0 6.0 0.00 0.00 0.00 71 1017.4
20200402110124 44 86 1.0 6.0 0.00 0.00 0.00 71 1017.4
20200402104658 44 71 1.0 4.0 0.00 0.00 0.00 72 1017.3
20200402103251 43 68 0.0 3.0 0.00 0.00 0.00 74 1017.2
20200402101617 43 68 0.0 3.0 0.00 0.00 0.00 75 1017.2